Date,TemperatureHighF,TemperatureAvgF,TemperatureLowF,DewpointHighF,DewpointAvgF,DewpointLowF,HumidityHigh,HumidityAvg,HumidityLow,PressureMaxIn,PressureMinIn,WindSpeedMaxMPH,WindSpeedAvgMPH,GustSpeedMaxMPH,PrecipitationSumIn
2013-1-1,50,46,40,50,44,34,100,93,58,30.10,29.94,6,1,6,1.19
2013-1-2,46,39,37,45,37,34,97,93,85,30.18,29.97,7,0,7,0.03
2013-1-3,45,35,28,35,31,26,92,86,60,30.38,30.15,5,0,5,0.00
2013-1-4,46,33,23,31,26,21,95,76,46,30.44,30.34,7,1,10,0.00
2013-1-5,48,36,25,37,29,22,92,77,47,30.41,30.24,10,1,10,0.04
2013-1-6,47,41,37,41,37,29,96,87,68,30.30,30.13,10,1,12,0.06
2013-1-7,52,38,28,36,31,26,92,77,53,30.39,30.28,13,1,13,0.01
2013-1-8,57,47,42,42,36,30,88,65,53,30.37,30.25,22,2,22,0.00
2013-1-9,53,49,43,50,46,39,95,91,85,30.42,30.30,11,1,12,0.02
2013-1-10,72,58,48,58,52,46,94,79,60,30.41,30.08,32,4,33,0.00
2013-1-11,70,66,63,63,61,55,96,83,73,30.09,30.00,20,4,27,0.04
2013-1-12,72,68,64,65,62,59,96,82,72,30.07,29.94,14,3,15,0.04
2013-1-13,71,68,61,62,60,57,97,76,66,29.99,29.88,25,5,25,1.47
2013-1-14,61,44,38,60,43,37,100,96,94,30.25,29.97,13,1,13,2.51
2013-1-15,44,42,39,43,41,38,97,97,96,30.17,29.95,11,1,13,1.94
2013-1-16,49,45,43,49,44,42,100,97,95,30.05,29.89,7,1,7,0.37
2013-1-17,44,39,31,43,37,30,97,95,91,30.34,29.70,36,3,36,1.10
2013-1-18,49,37,28,35,31,27,96,81,50,30.53,30.34,7,1,7,0.01
2013-1-19,54,40,28,38,31,26,96,74,40,30.43,30.19,14,2,14,0.00
2013-1-20,58,45,34,40,34,30,87,67,46,30.20,30.09,9,1,9,0.00
2013-1-21,50,37,28,36,24,15,95,66,33,30.24,30.09,13,2,13,0.01
2013-1-22,36,30,22,16,10,5,63,46,31,30.37,30.22,9,1,10,0.00
2013-1-23,48,37,28,33,20,8,72,51,39,30.39,30.13,15,1,15,0.00
2013-1-24,44,37,27,37,21,8,80,55,29,30.39,30.16,13,2,14,0.00
2013-1-25,36,33,28,34,26,10,96,78,44,30.36,30.11,23,2,23,0.19
2013-1-26,50,39,33,36,33,28,96,79,51,30.33,30.18,10,1,11,0.00
2013-1-27,51,40,28,40,33,27,95,79,54,30.44,30.29,22,2,22,0.00
2013-1-28,58,51,45,51,43,32,86,72,53,30.35,30.19,16,2,16,0.00
2013-1-29,68,58,44,61,53,42,97,84,72,30.20,29.83,24,3,24,0.01
2013-1-30,72,60,42,64,55,36,96,86,72,29.83,29.48,33,7,37,2.45
2013-1-31,47,39,34,36,27,24,88,62,42,30.08,29.72,18,4,23,0.01
2013-2-1,43,30,22,34,17,10,85,58,40,30.41,30.03,15,2,15,0.00
2013-2-2,39,30,22,35,25,14,88,81,66,30.40,30.10,13,2,14,0.02
2013-2-3,51,39,31,37,31,25,92,75,45,30.15,30.00,13,2,14,0.01
2013-2-4,49,37,25,33,28,22,91,72,48,30.14,29.97,7,1,9,0.00
2013-2-5,61,49,41,45,40,32,91,72,49,30.01,29.91,11,1,12,0.01
2013-2-6,64,48,32,44,35,29,99,67,27,30.17,30.01,10,1,10,0.01
2013-2-7,57,52,41,49,39,29,95,66,39,30.10,29.90,22,2,23,0.06
2013-2-8,56,46,39,50,42,31,98,86,60,30.25,29.87,11,1,14,0.22
2013-2-9,58,43,31,36,31,27,85,64,41,30.32,30.19,10,1,10,0.00
2013-2-10,60,54,47,51,36,27,92,55,32,30.21,29.90,39,9,40,0.66
2013-2-11,58,52,42,55,48,38,97,86,55,30.10,29.91,25,2,25,0.06
2013-2-12,53,46,36,42,36,32,93,72,45,30.16,29.82,12,1,12,0.07
2013-2-13,48,44,38,46,40,34,97,89,76,29.98,29.66,16,2,17,0.07
2013-2-14,55,43,37,39,36,33,93,76,51,30.08,29.98,12,1,12,0.00
2013-2-15,58,41,30,48,36,28,96,84,53,30.09,29.98,21,1,21,0.13
2013-2-16,39,32,25,33,23,16,93,70,44,30.17,30.00,12,1,14,0.00
2013-2-17,45,30,17,21,16,13,94,59,31,30.30,30.16,11,1,12,0.00
2013-2-18,62,46,28,35,25,16,69,45,32,30.31,29.97,31,4,32,0.00
2013-2-19,56,45,36,45,32,16,96,63,29,30.19,29.91,28,4,28,0.57
2013-2-20,41,34,24,24,19,12,83,55,30,30.24,30.17,7,1,7,0.00
2013-2-21,55,41,28,43,27,17,95,60,34,30.22,29.94,34,2,34,0.86
2013-2-22,53,49,45,47,44,40,95,83,73,30.06,29.90,34,6,35,0.22
2013-2-23,55,48,44,49,46,42,98,93,81,30.00,29.80,5,0,6,0.25
2013-2-24,58,45,31,43,34,27,97,69,35,30.05,29.90,7,1,9,0.01
2013-2-25,57,47,38,44,34,27,74,61,42,30.01,29.71,31,4,33,0.00
2013-2-26,58,50,40,50,44,36,90,80,66,29.72,29.40,36,9,36,0.67
2013-2-27,55,44,38,39,36,33,93,74,51,29.86,29.71,14,3,18,0.02
2013-2-28,41,38,36,34,29,27,83,71,64,30.01,29.83,13,2,13,0.01
2013-3-1,40,37,34,34,32,28,93,82,72,30.00,29.95,8,1,8,0.03
2013-3-2,37,34,31,34,31,26,100,88,75,30.07,29.94,7,1,9,0.17
2013-3-3,40,32,25,27,23,19,91,70,47,30.10,30.04,11,1,11,0.01
2013-3-4,55,38,21,35,26,18,91,64,33,30.19,29.97,7,1,7,0.00
2013-3-5,59,51,37,55,44,30,95,78,47,30.00,29.59,22,5,23,0.72
2013-3-6,37,34,31,32,28,24,91,80,70,30.26,29.85,15,2,15,0.02
2013-3-7,45,36,30,34,30,26,88,78,60,30.33,30.22,12,1,12,0.00
2013-3-8,57,42,29,33,28,25,92,61,31,30.38,30.24,11,1,12,0.01
2013-3-9,60,48,32,38,33,27,85,59,39,30.29,30.11,16,2,19,0.00
2013-3-10,72,63,57,42,35,32,48,36,25,30.11,29.90,29,8,30,0.00
2013-3-11,65,58,45,54,50,42,96,78,48,29.93,29.68,28,7,31,1.04
2013-3-12,56,45,38,44,35,31,95,70,44,30.09,29.86,9,1,10,0.00
2013-3-13,49,39,32,34,27,20,92,65,41,30.33,30.08,15,2,15,0.00
2013-3-14,51,38,25,35,22,18,82,55,32,30.40,30.22,12,1,12,0.00
2013-3-15,72,53,31,47,39,29,94,65,39,30.27,29.89,19,3,19,0.00
2013-3-16,77,67,59,52,47,43,58,50,38,29.89,29.73,24,5,24,0.00
2013-3-17,73,65,58,55,50,46,68,59,48,29.90,29.79,20,4,20,0.00
2013-3-18,65,59,52,56,53,50,96,80,62,29.85,29.67,23,4,25,0.84
2013-3-19,63,50,38,52,34,17,96,58,22,30.10,29.81,15,2,15,0.03
2013-3-20,58,45,34,33,24,10,76,45,21,30.12,29.87,13,2,18,0.00
2013-3-21,43,31,24,28,17,12,77,56,34,30.02,29.95,10,1,13,0.00
2013-3-22,45,37,29,34,24,16,72,58,47,30.07,29.98,7,1,7,0.00
2013-3-23,56,46,38,47,40,31,93,81,63,30.01,29.71,12,1,14,0.08
2013-3-24,62,51,42,55,47,32,97,88,65,29.79,29.36,25,4,27,0.89
2013-3-25,42,36,32,34,27,25,80,69,60,30.07,29.63,19,5,19,0.00
2013-3-26,42,35,32,32,29,27,95,78,55,30.31,30.05,10,2,11,0.00
2013-3-27,53,40,27,31,27,24,93,63,35,30.36,30.24,11,1,12,0.01
2013-3-28,60,43,26,34,27,23,92,58,31,30.35,30.22,12,1,14,0.00
2013-3-29,48,40,31,42,33,23,93,76,48,30.35,30.20,11,1,13,0.01
2013-3-30,65,52,42,52,46,41,96,82,53,30.21,29.95,11,1,11,0.29
2013-3-31,64,58,53,58,55,52,97,91,71,29.95,29.80,14,2,16,0.44
2013-4-1,67,55,43,55,46,37,98,75,44,30.03,29.85,15,1,15,0.02
2013-4-2,56,48,35,39,30,25,80,51,31,30.19,30.03,11,1,13,0.00
2013-4-3,60,50,41,32,27,23,59,41,30,30.21,30.10,13,2,16,0.00
2013-4-4,52,44,42,44,40,27,100,87,39,30.13,29.94,10,1,10,1.53
2013-4-5,66,51,41,46,41,40,97,74,40,30.06,29.95,9,1,10,0.01
2013-4-6,73,56,35,48,40,34,95,61,32,30.16,30.01,15,2,18,0.00
2013-4-7,74,66,57,51,45,38,58,47,38,30.11,29.97,18,4,18,0.00
2013-4-8,76,69,59,56,52,47,74,54,45,30.04,29.95,23,4,23,0.00
2013-4-9,83,73,59,61,56,52,81,57,42,30.11,29.93,14,2,14,0.00
2013-4-10,85,76,66,62,58,55,74,56,43,30.03,29.79,13,2,15,0.00
2013-4-11,82,72,62,65,59,56,96,64,45,29.83,29.55,25,4,25,1.34
2013-4-12,67,59,48,62,48,40,94,69,38,29.91,29.48,20,2,20,0.13
2013-4-13,74,58,39,48,42,37,100,60,31,30.04,29.91,10,1,10,0.00
2013-4-14,72,58,44,53,45,38,85,64,35,30.00,29.86,22,2,25,0.02
2013-4-15,79,67,57,62,56,51,87,69,52,30.02,29.86,19,2,20,0.00
2013-4-16,84,73,65,67,62,57,82,69,54,30.15,30.01,22,4,25,0.00
2013-4-17,86,72,64,69,63,58,89,73,54,30.14,29.94,20,2,20,0.04
2013-4-18,82,73,62,64,60,56,92,66,43,29.99,29.74,21,4,21,0.03
2013-4-19,75,59,45,64,52,36,96,77,57,30.06,29.60,26,4,28,0.49
2013-4-20,65,49,33,40,35,31,95,61,32,30.25,30.06,9,1,10,0.00
2013-4-21,70,56,42,46,39,32,83,56,33,30.34,30.18,18,2,20,0.00
2013-4-22,74,62,53,51,44,39,77,52,37,30.27,30.07,24,3,24,0.00
2013-4-23,75,63,53,54,43,34,71,49,41,30.16,29.97,18,3,22,0.00
2013-4-24,72,63,47,63,54,45,95,75,53,30.18,29.93,22,3,22,0.39
2013-4-25,68,52,39,47,41,36,97,71,33,30.32,30.17,9,1,9,0.00
2013-4-26,72,56,38,50,42,35,91,63,34,30.36,30.21,10,1,11,0.00
2013-4-27,61,56,52,54,51,46,94,85,67,30.34,30.01,29,4,33,0.95
2013-4-28,61,58,56,57,54,52,96,88,73,30.06,29.85,30,5,31,1.64
2013-4-29,74,63,55,60,56,53,97,81,56,30.00,29.88,11,1,11,0.00
2013-4-30,80,65,48,65,57,47,98,78,50,30.02,29.91,11,1,13,0.01
2013-5-1,78,70,64,66,59,54,79,67,53,30.12,30.00,23,3,27,0.00
2013-5-2,78,69,62,62,56,52,73,64,52,30.11,30.01,21,4,21,0.00
2013-5-3,74,66,63,58,54,50,75,66,44,30.05,29.88,26,5,28,0.00
2013-5-4,64,57,53,54,52,45,97,83,60,29.90,29.82,21,3,23,1.50
2013-5-5,59,52,48,58,51,47,100,97,91,29.83,29.72,15,1,20,2.64
2013-5-6,57,52,46,53,49,45,97,91,74,29.88,29.74,11,1,11,0.25
2013-5-7,72,56,44,60,52,43,98,85,52,29.94,29.85,7,0,7,0.06
2013-5-8,75,62,54,64,58,53,98,86,59,30.01,29.90,12,1,13,0.01
2013-5-9,81,67,52,65,58,51,99,76,47,30.07,29.96,9,1,9,0.01
2013-5-10,73,68,63,64,60,56,84,75,62,30.01,29.88,13,1,14,0.00
2013-5-11,74,66,56,67,61,53,94,86,72,29.95,29.81,11,1,14,0.37
2013-5-12,67,57,47,54,43,36,96,64,33,30.11,29.94,10,1,10,0.01
2013-5-13,69,54,37,45,39,35,93,61,30,30.22,30.10,11,1,12,0.00
2013-5-14,77,60,39,59,49,37,95,69,46,30.21,30.00,18,2,18,0.00
2013-5-15,85,73,61,66,59,54,82,62,43,30.11,29.92,12,1,13,0.00
2013-5-16,83,70,57,68,60,54,92,73,49,30.01,29.89,12,1,13,0.00
2013-5-17,82,71,60,71,63,58,95,78,54,30.02,29.93,10,1,10,0.00
2013-5-18,78,70,64,72,66,62,95,88,75,30.00,29.93,12,1,14,0.41
2013-5-19,73,67,61,67,65,60,97,92,82,30.05,29.91,15,1,19,0.15
2013-5-20,85,69,57,74,65,56,100,87,55,30.09,29.94,8,0,9,0.01
2013-5-21,71,68,64,68,66,62,96,93,88,29.97,29.92,4,0,5,0.00
2013-5-22,86,76,65,72,66,59,93,73,49,29.89,29.75,19,2,19,0.01
2013-5-23,82,71,64,71,64,56,97,78,56,29.95,29.83,12,1,15,0.17
2013-5-24,72,63,54,58,53,45,93,71,44,30.21,29.95,13,1,14,0.00
2013-5-25,78,62,46,55,47,40,92,62,27,30.29,30.12,9,1,11,0.00
2013-5-26,80,64,50,59,52,46,92,67,35,30.24,30.11,11,1,12,0.00
2013-5-27,82,64,53,65,55,50,93,76,48,30.17,30.09,13,1,13,0.00
2013-5-28,88,80,70,68,63,58,74,56,46,30.10,30.00,19,2,19,0.00
2013-5-29,88,78,69,70,63,59,77,61,42,30.13,30.01,18,2,18,0.00
2013-5-30,87,78,72,70,64,62,74,63,48,30.14,30.01,21,4,22,0.00
2013-5-31,85,78,72,68,64,63,75,63,50,30.10,29.97,22,4,24,0.00
2013-6-1,86,78,71,73,68,63,94,70,56,30.00,29.87,18,3,18,0.14
2013-6-2,81,73,67,73,69,66,97,88,68,29.90,29.80,13,1,13,1.98
2013-6-3,84,72,64,71,66,61,98,82,51,29.93,29.82,5,0,5,0.01
2013-6-4,84,72,59,70,63,58,97,76,50,29.98,29.90,7,1,7,0.00
2013-6-5,85,72,64,75,67,62,96,84,62,29.96,29.84,14,1,14,1.26
2013-6-6,84,73,64,73,68,63,97,86,65,29.85,29.67,8,1,11,0.00
2013-6-7,83,70,66,74,68,65,98,92,64,29.81,29.64,7,0,7,1.68
2013-6-8,82,71,64,72,66,63,99,86,59,30.00,29.80,8,1,10,0.00
2013-6-9,84,74,70,76,69,64,96,85,68,30.02,29.90,12,1,12,0.17
2013-6-10,82,73,68,72,68,66,96,84,61,29.92,29.82,18,3,20,0.33
2013-6-11,90,76,68,77,71,67,98,85,57,29.98,29.88,7,0,7,0.13
2013-6-12,90,79,68,80,74,67,98,84,61,30.00,29.87,12,1,14,0.00
2013-6-13,88,78,69,79,73,66,95,86,68,29.88,29.64,15,1,17,0.07
2013-6-14,82,72,60,68,63,59,98,74,49,29.96,29.81,12,1,13,0.00
2013-6-15,86,74,62,70,63,57,89,68,50,30.06,29.95,9,1,10,0.00
2013-6-16,88,76,64,75,67,61,95,74,50,30.06,29.92,11,1,12,0.02
2013-6-17,86,73,69,76,70,68,98,90,63,29.98,29.86,7,0,9,0.50
2013-6-18,78,71,66,75,70,64,98,95,83,29.89,29.78,21,1,21,1.03
2013-6-19,85,72,61,73,66,60,100,83,53,30.01,29.87,6,0,7,0.01
2013-6-20,89,74,66,75,68,62,96,80,52,30.12,30.00,12,1,17,0.07
2013-6-21,84,74,67,74,68,64,95,82,64,30.18,30.08,6,0,7,0.00
2013-6-22,88,77,68,72,67,63,92,72,49,30.17,30.00,8,0,9,0.00
2013-6-23,86,75,69,74,68,63,97,80,56,30.13,30.02,17,1,17,0.52
2013-6-24,88,78,71,76,71,68,93,80,56,30.15,30.00,7,1,9,0.00
2013-6-25,86,76,69,77,72,67,97,87,64,30.09,29.95,7,0,8,0.03
2013-6-26,87,78,69,77,73,68,98,84,68,29.99,29.81,12,1,13,0.00
2013-6-27,87,79,71,78,73,69,95,83,72,29.88,29.71,16,2,16,0.00
2013-6-28,89,76,68,78,72,67,98,87,61,29.78,29.60,13,1,21,0.19
2013-6-29,86,76,67,72,67,63,98,77,49,29.65,29.58,10,1,10,0.00
2013-6-30,87,76,63,71,65,60,98,74,43,29.75,29.61,12,1,12,0.09
2013-7-1,82,72,63,74,68,62,98,89,72,29.85,29.70,15,1,17,0.27
2013-7-2,84,74,66,74,69,65,97,86,62,29.99,29.85,8,1,10,0.92
2013-7-3,75,71,68,72,68,65,97,91,81,30.09,29.98,13,1,13,0.57
2013-7-4,76,71,67,74,69,66,97,93,82,30.10,30.01,13,1,16,1.02
2013-7-5,76,73,70,72,69,67,96,87,79,30.13,30.03,13,2,19,0.09
2013-7-6,78,72,68,76,69,67,98,93,84,30.09,30.05,11,1,12,2.34
2013-7-7,75,71,68,74,70,68,99,97,94,30.11,30.03,6,0,6,0.92
2013-7-8,89,76,70,79,72,69,99,91,62,30.15,30.02,4,0,4,0.12
2013-7-9,89,78,71,80,74,70,98,88,65,30.11,29.98,5,0,6,0.00
2013-7-10,88,76,70,81,73,69,98,92,71,30.03,29.87,9,0,10,0.89
2013-7-11,88,76,68,78,72,68,98,89,67,29.93,29.80,9,0,9,0.04
2013-7-12,85,75,68,76,70,65,97,85,60,29.91,29.83,10,1,11,0.00
2013-7-13,85,76,65,75,68,64,95,80,61,30.00,29.87,14,2,15,0.00
2013-7-14,86,77,69,76,70,67,97,82,65,30.13,29.98,17,2,18,0.00
2013-7-15,91,79,72,78,70,67,91,75,54,30.22,30.12,13,2,16,0.02
2013-7-16,92,81,70,80,73,68,94,78,59,30.25,30.14,7,1,8,0.00
2013-7-17,92,80,69,81,74,66,98,84,58,30.22,30.07,9,0,10,0.00
2013-7-18,90,77,68,79,71,66,97,82,60,30.16,29.97,14,1,14,1.07
2013-7-19,91,80,70,78,74,69,98,82,59,30.05,29.89,7,1,7,0.01
2013-7-20,90,79,70,79,73,69,98,82,58,29.96,29.82,9,0,10,0.00
2013-7-21,87,76,69,77,72,68,98,90,67,29.96,29.85,10,0,10,0.17
2013-7-22,83,74,70,77,72,69,99,91,75,29.93,29.77,14,1,17,0.00
2013-7-23,83,74,69,76,72,67,98,92,75,29.89,29.76,12,1,23,0.65
2013-7-24,87,76,71,77,73,70,98,90,66,29.83,29.74,6,0,6,0.01
2013-7-25,86,74,64,74,68,63,98,83,57,29.97,29.82,7,0,7,0.01
2013-7-26,87,75,61,77,69,60,98,83,66,30.01,29.90,9,1,10,0.00
2013-7-27,83,74,69,75,70,67,97,87,65,29.93,29.81,10,0,10,0.02
2013-7-28,85,74,67,73,68,62,99,83,56,30.01,29.85,5,0,5,0.00
2013-7-29,81,69,60,69,62,58,96,81,51,30.13,30.00,6,0,6,0.00
2013-7-30,87,71,59,75,65,58,97,83,56,30.18,30.06,6,0,8,0.00
2013-7-31,78,72,68,75,70,66,97,93,82,30.08,29.91,6,0,7,0.29
2013-8-1,86,76,69,77,72,67,99,88,65,29.93,29.86,6,0,7,0.14
2013-8-2,88,75,64,75,69,63,99,83,52,29.98,29.90,5,0,5,0.00
2013-8-3,84,75,66,76,70,65,98,87,68,30.00,29.92,7,0,7,0.01
2013-8-4,87,76,68,76,70,64,98,81,56,30.00,29.93,7,0,7,0.00
2013-8-5,87,73,61,72,66,60,97,80,44,30.01,29.91,5,0,5,0.00
2013-8-6,84,75,69,76,71,67,97,87,68,29.95,29.88,5,0,5,0.07
2013-8-7,84,76,72,77,73,70,98,91,77,29.97,29.88,10,1,10,0.15
2013-8-8,87,76,71,79,73,70,98,90,71,29.99,29.90,9,1,10,0.30
2013-8-9,91,79,71,80,74,70,98,87,66,30.00,29.92,14,1,14,0.04
2013-8-10,88,76,72,79,74,71,99,93,69,30.05,29.99,12,0,13,0.11
2013-8-11,86,75,69,78,72,68,99,92,70,30.09,29.99,9,0,9,0.18
2013-8-12,86,74,68,80,73,67,99,95,75,30.06,29.92,10,0,16,0.91
2013-8-13,85,76,70,78,73,70,99,91,69,29.93,29.80,11,1,11,0.14
2013-8-14,80,71,63,72,66,59,98,86,59,29.98,29.86,7,1,12,0.00
2013-8-15,82,71,60,71,64,58,93,80,60,30.02,29.95,12,1,12,0.00
2013-8-16,79,70,64,69,63,58,94,78,60,30.04,29.97,9,1,9,0.00
2013-8-17,76,69,66,70,65,61,97,89,74,30.08,30.01,5,0,5,0.75
2013-8-18,79,70,65,72,68,64,98,92,75,30.13,30.04,7,0,7,0.15
2013-8-19,79,72,68,74,70,66,98,93,80,30.09,30.00,11,1,11,0.40
2013-8-20,86,76,67,76,71,66,98,85,62,30.11,30.01,6,0,6,0.01
2013-8-21,77,73,70,74,70,68,97,90,83,30.16,30.05,11,0,15,1.30
2013-8-22,88,76,68,78,72,67,99,87,60,30.13,29.98,5,0,9,0.71
2013-8-23,89,75,66,77,70,65,99,87,60,30.04,29.92,9,0,12,0.01
2013-8-24,88,76,66,77,70,66,98,84,62,30.16,30.00,14,1,15,0.01
2013-8-25,85,76,68,72,64,57,94,68,50,30.29,30.16,20,2,23,0.00
2013-8-26,85,73,62,73,66,61,98,80,54,30.26,30.08,5,0,6,0.00
2013-8-27,87,73,62,75,68,61,100,85,58,30.11,29.97,6,0,6,0.01
2013-8-28,89,76,66,78,71,65,99,86,57,30.02,29.92,5,0,6,0.01
2013-8-29,90,76,68,80,73,68,99,89,63,29.98,29.86,7,0,9,0.11
2013-8-30,90,76,68,80,73,68,99,91,63,29.95,29.84,7,0,7,0.01
2013-8-31,92,77,71,80,73,70,99,90,59,29.90,29.77,6,0,12,0.01
2013-9-1,86,73,70,78,71,69,99,95,73,29.86,29.76,8,0,3,0.32
2013-9-2,84,74,68,77,72,67,99,92,74,29.91,29.78,10,1,13,0.01
2013-9-3,87,77,70,76,72,66,98,86,58,29.94,29.79,5,0,5,0.00
2013-9-4,87,73,62,74,67,62,98,83,54,30.06,29.93,5,0,5,0.01
2013-9-5,84,72,62,73,66,61,98,85,58,30.10,30.02,5,0,6,0.01
2013-9-6,88,72,60,73,66,60,98,82,52,30.11,30.00,6,0,6,0.01
2013-9-7,86,72,60,73,67,59,99,85,57,30.08,29.94,11,1,11,0.01
2013-9-8,88,75,64,76,69,63,99,84,54,29.97,29.87,5,0,6,0.01
2013-9-9,90,76,65,76,70,65,99,82,57,30.04,29.94,9,1,11,0.00
2013-9-10,91,80,74,74,70,66,86,72,49,30.15,30.04,9,1,10,0.00
2013-9-11,90,78,68,75,71,66,97,79,55,30.16,30.02,7,1,7,0.00
2013-9-12,88,75,67,76,71,66,99,89,62,30.04,29.83,10,0,11,0.02
2013-9-13,81,71,59,72,64,54,99,80,47,29.92,29.81,8,0,9,0.01
2013-9-14,79,64,52,63,56,50,95,78,48,30.02,29.90,11,1,11,0.01
2013-9-15,85,72,59,67,62,57,93,72,49,30.10,30.01,17,2,17,0.00
2013-9-16,86,68,61,70,63,59,98,85,44,30.11,30.02,5,0,6,0.00
2013-9-17,81,71,64,69,63,58,92,76,61,30.14,30.06,18,2,19,0.00
2013-9-18,79,72,68,67,61,56,81,69,61,30.16,30.05,19,3,19,0.00
2013-9-19,84,72,60,70,64,59,97,80,55,30.14,29.98,7,1,9,0.00
2013-9-20,87,75,62,70,66,61,98,75,49,30.02,29.82,15,1,15,0.00
2013-9-21,76,69,62,70,65,61,98,90,70,29.83,29.69,16,1,19,1.48
2013-9-22,77,64,55,64,58,54,99,84,54,29.87,29.77,9,1,13,0.01
2013-9-23,82,67,54,68,60,53,97,79,51,29.96,29.86,11,1,15,0.01
2013-9-24,74,68,65,67,62,57,96,82,70,29.97,29.83,13,1,14,0.01
2013-9-25,68,66,64,66,64,63,97,94,85,29.84,29.77,10,0,10,0.89
2013-9-26,80,68,61,69,64,60,98,90,61,29.97,29.83,6,0,9,0.11
2013-9-27,81,67,55,68,61,54,100,84,55,30.10,29.96,5,0,5,0.01
2013-9-28,80,70,62,65,60,55,95,72,55,30.16,30.03,17,2,17,0.00
2013-9-29,76,66,60,63,59,53,92,78,55,30.09,29.96,9,0,9,0.00
2013-9-30,76,65,55,65,60,54,100,84,57,30.05,29.94,9,1,10,0.00
2013-10-1,81,67,58,68,62,56,96,84,57,30.12,29.99,9,0,9,0.00
2013-10-2,84,69,58,72,64,57,99,86,58,30.12,29.99,5,0,5,0.01
2013-10-3,84,73,65,70,65,63,97,79,55,30.08,29.97,10,1,11,0.00
2013-10-4,85,71,60,70,64,59,97,81,53,30.11,30.01,7,0,7,0.00
2013-10-5,87,73,60,72,66,59,98,81,50,30.08,29.92,7,0,10,0.01
2013-10-6,84,74,67,70,65,63,93,76,55,29.95,29.73,20,3,20,0.08
2013-10-7,68,56,54,66,55,53,100,96,86,29.91,29.80,7,0,7,0.39
2013-10-8,75,60,51,60,54,48,95,81,57,30.09,30.00,5,1,0,0.01
2013-10-9,78,66,52,65,59,51,98,78,56,30.16,30.04,5,1,6,0.00
2013-10-10,77,62,51,63,56,50,98,84,54,30.11,29.99,9,1,11,0.01
2013-10-11,80,62,49,64,56,48,100,83,50,30.05,29.94,6,0,6,0.01
2013-10-12,81,63,51,64,57,50,98,84,49,30.07,29.96,5,0,6,0.02
2013-10-13,78,64,52,66,59,51,98,85,59,30.17,30.06,10,1,10,0.01
2013-10-14,82,68,59,67,63,58,98,84,58,30.17,30.03,8,1,9,0.01
2013-10-15,75,66,61,64,61,58,96,85,64,30.09,29.97,7,0,7,0.00
2013-10-16,72,65,59,64,60,57,96,87,71,30.01,29.90,6,0,9,0.02
2013-10-17,73,64,57,69,62,53,97,92,83,29.96,29.81,14,1,15,0.20
2013-10-18,69,56,48,56,51,47,98,85,53,30.02,29.91,7,0,7,0.00
2013-10-19,69,55,48,58,52,45,98,89,63,30.01,29.87,13,1,13,0.01
2013-10-20,67,50,37,50,43,36,98,80,43,30.08,29.98,9,1,9,0.01
2013-10-21,72,53,38,55,46,36,97,80,44,30.10,29.96,9,1,10,0.00
2013-10-22,70,58,51,56,52,48,98,82,56,29.98,29.81,8,0,8,0.01
2013-10-23,54,47,35,50,41,33,97,81,53,30.08,29.78,11,1,12,0.01
2013-10-24,57,45,35,46,40,33,100,82,55,30.25,30.06,8,0,10,0.00
2013-10-25,54,40,30,37,31,27,90,71,42,30.42,30.25,11,1,11,0.00
2013-10-26,60,43,28,39,32,26,95,70,34,30.34,30.11,14,1,14,0.00
2013-10-27,65,55,47,53,47,37,92,74,54,30.14,30.04,10,1,12,0.00
2013-10-28,63,57,50,58,54,49,98,91,79,30.24,30.07,9,0,10,0.02
2013-10-29,74,60,48,60,54,47,98,83,57,30.30,30.17,9,1,11,0.01
2013-10-30,80,67,57,62,58,55,95,74,47,30.23,30.07,12,1,14,0.00
2013-10-31,74,70,65,64,59,55,86,70,63,30.08,29.60,29,6,29,0.03
2013-11-1,75,65,51,65,57,46,97,77,48,29.78,29.61,25,2,27,0.02
2013-11-2,68,52,41,50,44,38,97,75,40,30.07,29.76,10,1,11,0.00
2013-11-3,61,48,37,46,40,35,98,76,45,30.28,30.07,11,1,12,0.01
2013-11-4,68,56,40,44,38,35,91,53,36,30.37,30.28,21,3,24,0.00
2013-11-5,69,57,50,47,40,34,73,52,39,30.40,30.25,18,2,18,0.00
2013-11-6,76,66,57,58,53,36,80,65,40,30.25,30.00,15,4,21,0.00
2013-11-7,66,53,41,59,46,33,97,78,51,30.25,29.97,10,1,14,0.58
2013-11-8,58,43,34,36,30,27,89,63,34,30.37,30.25,12,1,12,0.00
2013-11-9,57,46,34,41,35,29,82,66,48,30.32,30.19,9,1,9,0.00
2013-11-10,69,52,37,46,39,30,95,63,37,30.30,30.19,6,0,7,0.00
2013-11-11,66,49,31,40,34,27,89,59,31,30.30,30.12,9,1,10,0.00
2013-11-12,51,41,29,44,32,18,89,70,55,30.53,30.11,14,1,17,0.01
2013-11-13,46,34,25,24,20,18,78,59,35,30.64,30.47,10,1,11,0.00
2013-11-14,59,38,21,30,23,18,91,59,29,30.50,30.28,6,1,7,0.00
2013-11-15,52,46,42,42,33,21,96,65,33,30.28,30.11,13,1,13,0.21
2013-11-16,65,54,43,57,51,42,97,88,75,30.20,30.05,24,2,24,0.00
2013-11-17,70,66,64,66,61,56,95,83,73,30.05,29.79,22,5,24,0.53
2013-11-18,69,58,46,67,46,33,97,68,32,30.10,29.81,12,1,12,0.35
2013-11-19,56,46,39,34,31,28,75,56,37,30.19,30.08,13,2,16,0.00
2013-11-20,62,51,38,36,32,28,74,51,33,30.28,30.14,20,2,23,0.00
2013-11-21,62,55,48,53,44,34,87,67,51,30.33,30.22,18,2,22,0.00
2013-11-22,61,57,54,58,55,51,97,94,86,30.28,30.15,5,0,6,0.19
2013-11-23,54,45,33,53,40,23,97,84,58,30.37,30.16,9,1,10,0.05
2013-11-24,39,31,24,24,17,12,76,57,39,30.55,30.36,13,2,16,0.00
2013-11-25,42,35,28,32,22,13,94,61,42,30.47,30.18,13,1,13,0.27
2013-11-26,47,38,33,46,38,32,100,97,94,30.20,29.74,11,1,11,2.38
2013-11-27,38,31,24,37,27,18,96,85,67,30.31,29.80,12,1,14,0.06
2013-11-28,45,30,18,30,23,16,98,75,48,30.50,30.30,7,1,9,0.00
2013-11-29,53,36,24,34,28,22,94,74,42,30.58,30.45,6,1,7,0.00
2013-11-30,54,40,29,38,31,26,90,71,47,30.53,30.29,13,1,13,0.00
2013-12-1,55,42,28,41,34,26,93,76,53,30.30,29.98,10,1,10,0.00
2013-12-2,50,47,44,48,44,38,95,89,73,29.98,29.78,7,0,7,0.03
2013-12-3,60,53,47,54,51,46,100,92,80,29.84,29.77,11,1,11,0.02
2013-12-4,72,63,53,61,58,52,96,82,65,29.92,29.82,21,3,21,0.00
2013-12-5,74,69,64,67,64,60,96,85,75,29.97,29.85,19,2,19,0.04
2013-12-6,72,55,40,67,53,39,100,94,83,30.15,29.80,21,2,27,1.32
2013-12-7,40,38,36,40,36,35,97,94,90,30.38,30.14,11,1,12,0.02
2013-12-8,47,41,36,46,40,35,98,97,94,30.31,30.06,14,1,14,1.09
2013-12-9,52,47,42,50,46,40,98,97,93,30.15,29.98,7,1,7,0.61
2013-12-10,43,37,27,40,34,25,97,88,62,30.37,29.96,10,1,12,0.66
2013-12-11,51,35,23,37,29,22,95,81,52,30.46,30.33,6,1,7,0.01
2013-12-12,42,32,25,27,23,16,87,70,42,30.53,30.41,6,1,9,0.00
2013-12-13,50,35,20,32,25,18,93,69,36,30.44,30.13,12,1,12,0.00
2013-12-14,52,49,40,51,44,26,97,84,44,30.18,29.76,26,3,31,0.84
2013-12-15,45,36,31,43,33,28,93,87,82,30.22,29.85,10,1,10,0.00
2013-12-16,51,38,26,38,32,25,96,79,57,30.26,30.12,15,1,17,0.01
2013-12-17,60,48,38,42,34,26,76,60,47,30.22,30.00,14,2,17,0.00
2013-12-18,49,38,27,30,25,21,92,62,38,30.33,30.22,6,1,7,0.00
2013-12-19,62,43,27,33,27,21,89,57,27,30.31,30.12,12,1,17,0.00
2013-12-20,64,58,50,54,42,29,75,56,37,30.16,30.00,16,2,17,0.00
2013-12-21,73,68,62,66,61,54,91,78,73,30.00,29.75,21,6,27,0.16
2013-12-22,74,60,55,66,57,54,97,92,67,30.01,29.73,19,3,23,2.00
2013-12-23,55,44,35,54,41,30,97,90,81,30.33,29.98,10,1,13,0.17
2013-12-24,38,32,26,30,24,18,85,73,51,30.49,30.32,12,1,12,0.00
2013-12-25,46,31,19,30,23,17,99,74,50,30.47,30.32,9,1,13,0.00
2013-12-26,51,37,26,33,28,23,90,72,46,30.40,30.29,6,1,6,0.00
2013-12-27,54,36,25,36,28,23,94,75,39,30.47,30.35,6,1,7,0.00
2013-12-28,40,34,27,40,32,25,100,91,80,30.40,29.93,5,1,11,0.84
2013-12-29,48,42,38,46,41,37,98,95,89,30.04,29.87,4,1,7,0.73
2013-12-30,42,39,36,41,36,33,97,90,81,30.23,30.01,2,0,5,0.00
2013-12-31,42,34,28,35,29,25,97,84,57,30.46,30.20,3,0,7,0.01
2014-1-1,50,36,24,37,30,23,95,81,58,30.35,30.08,4,1,7,0.00
2014-1-2,47,38,22,46,35,15,97,87,74,30.21,29.75,6,2,12,0.47